Zurück zum Katalog

CZ-6A DEB

AktivPO
NORAD 60626·DEBRIS·🇨🇳 China

Gestartet Aug 6, 2024 von Taiyuan Satellite Launch Center

Loading…

Nächste Überflüge (nächste 24 Stunden)

TLE

AktuellSource: Space-Track

Epoche: Sep 14, 2026, 10:30 UTC

1 60626U 24140AB  26257.43804163  .00001212  00000-0  10719-3 0  9999
2 60626  89.0140 257.7220 0207649 212.5592 146.2689 14.80393821113339

Verfolge CZ-6A DEB in Echtzeit mit AllMySat

Download on the App Store